Miscellaneous Local Product
Issued by NWS North Platte, NE

Home | Current Version | Previous Version | Text Only | Print | Product List | Glossary On
Versions: 1 2 3 4 5 6 7 8 9 10 11 12 13 14 15 16 17 18 19 20 21 22 23 24 25 26 27 28 29 30 31 32 33 34 35 36 37 38 39 40 41 42 43 44 45 46 47 48 49 50
342
AXUS43 KLBF 232110
MISLBF


WESTERN AND NORTH CENTRAL NEBRASKA HOURLY WEATHER ROUNDUP
NATIONAL WEATHER SERVICE NORTH PLATTE NE
400 PM CDT MON MAY 23 2016

NOTE: "FAIR" INDICATES FEW OR NO CLOUDS BELOW 12,000 FEET WITH NO
SIGNIFICANT WEATHER AND/OR OBSTRUCTIONS TO VISIBILITY.

NOTE: STATIONS NOT REPORTING VARIABLES SUCH AS SKY/WEATHER OR
PRESSURE ARE PROVIDED BY RAWS AND APRS NETWORKS AND ARE NOT UNDER
NATIONAL WEATHER SERVICE QUALITY CONTROL.

...OBSERVATIONS IN AND NEAR THE EASTERN PANHANDLE OF NEBRASKA...

CITY           SKY/WX    TMP DP  RH WIND       PRES   REMARKS
PINE RIDGE     SUNNY     71  30  21 W12G17    29.77S
CHADRON        SUNNY     73  33  23 W12G18    29.77S
ALLIANCE       MOSUNNY   72  32  23 W15       29.79F
SIDNEY         SUNNY     73  36  25 S14G21    29.85F
CRESCENT LAKE    N/A     74  29  19 W15G23      N/A
BIG SPRINGS      N/A     75  31  20 SW5         N/A
$$

...OBSERVATIONS IN NORTHERN NEBRASKA AND FAR SOUTHERN SOUTH DAKOTA...

CITY           SKY/WX    TMP DP  RH WIND       PRES   REMARKS
WINNER         FAIR      77  46  33 SW13      29.72F
VALENTINE      SUNNY     77  31  18 SW9       29.74F
THEDFORD       SUNNY     78  35  21 W15       29.79S
AINSWORTH      SUNNY     77  40  26 SW13G20   29.76S
O`NEILL        SUNNY     78  47  34 SW12      29.74F
ORD            SUNNY     77  57  50 W8        29.75F
BROKEN BOW     SUNNY     77  47  34 SW9       29.77F
BUTTE            N/A     76  48  37 SW9         N/A
CHAMBERS         N/A     79  53  39 S3G12       N/A
EWING            N/A     77  57  49 S6          N/A
$$

...OBSERVATIONS IN SOUTHWEST NEBRASKA AND FAR NORTHEAST COLORADO...

CITY           SKY/WX    TMP DP  RH WIND       PRES   REMARKS
WRAY           FAIR      75  34  22 SE8G17    29.84F
HOLYOKE        FAIR      79  32  18 S5        29.83F
IMPERIAL       SUNNY     74  35  24 VRB3      29.82F
OGALLALA       SUNNY     75  27  16 W3        29.82S
NORTH PLATTE   SUNNY     76  41  28 VRB3      29.79F
MCCOOK         SUNNY     78  50  37 CALM      29.79F
LEXINGTON      SUNNY     76  53  44 CALM      29.78F
PAXTON           N/A     75  40  29 CALM        N/A
STAPLETON        N/A     78  43  28 CALM        N/A
GOTHENBURG       N/A     79  44  28 SW3         N/A
CALLAWAY         N/A     75  47  37 W8          N/A
$$

...OBSERVATIONS IN CENTRAL LINCOLN COUNTY AREA...

CITY           SKY/WX    TMP DP  RH WIND       PRES   REMARKS
N.P. AIRPORT   SUNNY     76  41  28 VRB3      29.79F
N.P. DOWNTOWN    N/A     78  35  21 CALM        N/A
N.P. HILLCREST   N/A     76  33  21 W6          N/A
$$

...SOME OBSERVATIONS FROM AROUND THE REGION...

CITY           SKY/WX    TMP DP  RH WIND       PRES   REMARKS
DENVER         PTSUNNY   58  43  57 NW22G28   29.90R
LARAMIE        CLOUDY    59  19  21 W16G28    29.91S
CHEYENNE       CLOUDY    62  36  37 SW14G25   29.90R
SCOTTSBLUFF    CLOUDY    67  33  28 SW16G22   29.82S
RAPID CITY     SUNNY     76  29  17 SW17      29.71S
BISMARCK       MOSUNNY   76  35  22 SW12      29.67S
PIERRE         MOSUNNY   78  46  32 W10       29.67F
SIOUX FALLS    CLOUDY    74  60  61 W7        29.74S
OMAHA          CLOUDY    75  63  66 SE26G35   29.80R
GRAND ISLAND   TSTM      70  65  84 CALM      29.79R
KANSAS CITY    CLOUDY    66  62  87 SE13      29.85F
WICHITA        CLOUDY    72  65  78 SE22      29.80F
OKLAHOMA CITY  CLOUDY    74  68  81 SE10      29.85R
DALLAS         CLOUDY    80  68  66 S14       29.85F
AMARILLO       SUNNY     88  38  17 SW10      29.81F
DODGE CITY     PTSUNNY   80  63  55 SE13      29.76F
HAYS           PTSUNNY   79  61  53 S18       29.76F
GOODLAND       SUNNY     75  39  27 E6        29.82F
$$




USA.gov is the U.S. government's official web portal to all federal, state and local government web resources and services.